{"data":{"norad_id":55978,"intl_designator":"2023-040A","name":"COSMOS 2567","alt_names":[],"object_type":"PAYLOAD","status":"ACTIVE","operator":null,"country":"CIS","launch_date":"2023-03-23","launch_site_code":"PLMSC","launch_vehicle":null,"mission":null,"orbit_class":"UNKNOWN","rcs_meters":null,"size_class":null,"mass_kg":null,"dimensions":null,"purposes":[],"wikipedia_slug":null,"has_3d_model":false,"image_url":null,"decayed_at":null,"tle_current":{"epoch":"2026-05-25T04:36:06.889824Z","epoch_age_seconds":62004,"freshness":"FRESH","line1":"1 55978U 23040A   26145.19174641  .00003048  00000+0  12622-3 0  9994","line2":"2 55978  97.5889  71.0351 0002253 114.1138 246.0335 15.24713909176558","mean_motion":15.24713909,"eccentricity":0.0002253,"inclination_deg":97.5889,"raan_deg":71.0351,"arg_perigee_deg":114.1138,"mean_anomaly_deg":246.0335,"bstar":0.00012622,"rev_number":17655,"period_min":94.443947254632,"perigee_km":490.09688251483,"apogee_km":493.19240612376,"semimajor_km":6869.7816443193,"source":"CELESTRAK","updated_at":"2026-05-25T13:37:59.250012Z"}}}